Hourly Weather Roundup
Issued by NWS Central Illinois

Home | Current Version | Previous Version | Text Only | Print | Product List | Glossary On
Versions: 1 2 3 4 5 6 7 8 9 10 11 12 13 14 15 16 17 18 19 20 21 22 23 24 25 26 27 28 29 30 31 32 33 34 35 36 37 38 39 40 41 42 43 44 45 46 47 48 49 50
322
NZUS43 KILX 131210
HWRILX

AREA WEATHER ROUNDUP
NATIONAL WEATHER SERVICE, LINCOLN IL
600 AM CST SAT FEB 13 2016


CITY           SKY/WX    TMP DP  RH WIND       PRES   REMARKS
BLOOMINGTON    CLOUDY     4  -5  66 N5        30.58R WCI  -5
6HR MIN TEMP:   4; 6HR MAX TEMP:  10;

CHAMPAIGN      CLEAR      5  -5  63 N6        30.58R WCI  -6
6HR MIN TEMP:   5; 6HR MAX TEMP:  12;

DANVILLE       CLEAR      5  -5  64 NW10      30.53S WCI -10
6HR MIN TEMP:   5; 6HR MAX TEMP:  12;

DECATUR        CLOUDY     7  -5  57 N10       30.60R WCI  -8
6HR MIN TEMP:   7; 6HR MAX TEMP:  13;

EFFINGHAM      CLEAR     11   5  75 NW6       30.61S WCI   1
FLORA          CLEAR     13   4  66 N9        30.61S WCI   1
6HR MIN TEMP:  13; 6HR MAX TEMP:  20;

GALESBURG      PTCLDY     1  -4  78 NW6       30.61S WCI -10
JACKSONVILLE   CLOUDY     9  -1  66 N5        30.62F WCI   0
6HR MIN TEMP:   9; 6HR MAX TEMP:  15;

LACON          CLOUDY     4  -8  57 N3        30.61S
6HR MIN TEMP:   4; 6HR MAX TEMP:  10;

LAWRENCEVILLE  CLEAR     11   1  64 N10       30.60R WCI  -3
6HR MIN TEMP:  11; 6HR MAX TEMP:  18;

LITCHFIELD     CLOUDY     8  -1  64 N13       30.61R WCI  -7
$$


CITY           SKY/WX    TMP DP  RH WIND       PRES   REMARKS
LINCOLN        CLOUDY     7  -3  64 CALM      30.61S
6HR MIN TEMP:   7; 6HR MAX TEMP:  12;

MACOMB         CLOUDY     5  -2  72 N7        30.65S WCI  -7
MATTOON        CLEAR      7  -3  64 N10       30.57R WCI  -8
6HR MIN TEMP:   7; 6HR MAX TEMP:  13;

MT CARMEL AP   CLEAR     12   3  67 N12       30.59R WCI  -2
OLNEY-NOBLE AP CLEAR     12   3  67 N12       30.60S WCI  -2
PARIS          CLEAR      7  -3  65 NW7       30.58R WCI  -5
6HR MIN TEMP:   7; 6HR MAX TEMP:  14;

PEORIA         CLOUDY     5  -6  60 N3        30.62S
6HR MIN TEMP:   5; 6HR MAX TEMP:  10;

PONTIAC        CLEAR      5  -4  66 NW5       30.60R WCI  -4
RANTOUL        CLEAR      7  -4  61 NW6       30.57R WCI  -4
6HR MIN TEMP:   7; 6HR MAX TEMP:  14;

ROBINSON       CLEAR     10   0  62 N12G17    30.60R WCI  -5
6HR MIN TEMP:  10; 6HR MAX TEMP:  16;

SPRINGFIELD    CLOUDY     8  -2  63 N7        30.62S WCI  -3
6HR MIN TEMP:   8; 6HR MAX TEMP:  14;

TAYLORVILLE    CLEAR      9   1  72 N9        30.61S WCI  -5
$$

...REGIONAL REPORTS...


CITY           SKY/WX    TMP DP  RH WIND       PRES   REMARKS
CHICAGO O`HARE PTCLDY     3 -10  54 NW13      30.55R WCI -14
KANKAKEE       CLEAR      5  -9  52 NW8       30.58R WCI  -8
MOLINE         CLOUDY     4  -6  63 NW6       30.63R WCI  -7
MOUNT STERLING CLOUDY     4  -3  75 NW5       30.63R WCI  -6
MOUNT VERNON   CLEAR     12   0  57 N6        30.61R WCI   3
PITTSFIELD     CLOUDY     7  -1  71 CALM      30.63F
QUINCY         PTCLDY     3  -4  72 NW7       30.63R WCI  -9
ROCKFORD       PTCLDY     2 -11  54 N10       30.59S WCI -14
$$


CITY           SKY/WX    TMP DP  RH WIND       PRES   REMARKS
BURLINGTON     CLOUDY     4  -3  73 N6        30.63R WCI  -7
CEDAR RAPIDS   PTCLDY     1  -6  72 N8        30.62R WCI -13
DES MOINES     CLOUDY     4  -5  66 N5        30.63S WCI  -5
KIRKSVILLE     CLOUDY     6  -2  69 N9        30.63R WCI  -8
OTTUMWA        PTCLDY     5  -2  72 N8        30.63R WCI  -8
ST LOUIS       PTCLDY    12   1  61 N9        30.63S WCI   0
$$


CITY           SKY/WX    TMP DP  RH WIND       PRES   REMARKS
TERRE HAUTE    CLEAR      8  -5  55 NW10      30.57R WCI  -6
EVANSVILLE     CLEAR     16   3  56 N10       30.60R WCI   4
INDIANAPOLIS   PTCLDY     7  -3  64 NW10      30.50R WCI  -8
LAFAYETTE      CLEAR      5  -7  57 NW13G22   30.54R WCI -12
MADISON        CLOUDY    -3 -15  56 NW6       30.56R WCI -15
MILWAUKEE      PTCLDY     1 -13  51 NW10      30.53R WCI -15
$$






USA.gov is the U.S. government's official web portal to all federal, state and local government web resources and services.